Regional Weather Roundup
Issued by NWS Sterling, VA

Home | Current Version | Previous Version | Text Only | Print | Product List | Glossary Off
Versions: 1 2 3 4 5 6 7 8 9 10 11 12 13 14 15 16 17 18 19 20 21 22 23 24 25 26 27

000
ASUS41 KLWX 172011
RWRLWX

REGIONAL WEATHER ROUNDUP
NATIONAL WEATHER SERVICE BALTIMORE MD/WASHINGTON DC
400 PM EDT THU AUG 17 2017

Note: "FAIR" indicates few or no clouds below 12,000 feet
with no significant weather and/or obstructions to visibility.
 TC=TEMPERATURE CELSIUS

 * =Non NWS site. Station does not report precipitation (e.g. rain,
    snow, etc.), thunder, or fog.

DCZ001-MDZ009-015-VAZ040>042-051-053>054-172100-
WASHINGTON METRO

CITY           SKY/WX    TMP DP  RH WIND       PRES   REMARKS
WASHINGTON NAT CLOUDY    83  77  82 S17G26    29.94F HX  92
DULLES         PTSUNNY   85  74  69 SW10      29.93F HX  92
ANDREWS AFB    LGT RAIN  78  73  83 S17G29    29.95S
FT BELVOIR     CLOUDY    83  74  76 SE13      29.94F
QUANTICO       PTSUNNY   85  78  80 SE8       29.94F HX  96
COLLEGE PARK*  CLOUDY    81  75  83 E6        29.94F
LEESBURG*      PTSUNNY   90  77  66 S16       29.94F HX 102
MANASSAS*      LGT RAIN  83  76  79 CALM      29.93F HX  91
GAITHERSBURG*  PTSUNNY   87  75  67 S7        29.96F HX  96

$$

MDZ006>007-011-014-172100-
BALTIMORE METRO

CITY           SKY/WX    TMP DP  RH WIND       PRES   REMARKS
BWI AIRPORT    CLOUDY    81  76  84 SE9       29.94F
MD SCIENCE CTR   N/A     85  75  72 MISG      29.94F HX  93
MARTIN STATE   PTSUNNY   88  79  74 SE9       29.97F HX 102
ANNAPOLIS      LGT RAIN  80  77  90 S7        29.94F
FORT MEADE*    CLOUDY    79  75  89 E8        29.97F

$$

MDZ012-015-019>023-172100-
MARYLAND EASTERN SHORE

CITY           SKY/WX    TMP DP  RH WIND       PRES   REMARKS
OCEAN CITY     SUNNY     82  75  79 S9        29.99F
SALISBURY      MOSUNNY   86  74  67 S9        29.97F HX  94
BAY BRIDGE AP* CLOUDY    82  75  78 S6        29.95F
CAMBRIDGE*     SUNNY     86  72  62 S12       29.97S HX  92
EASTON*        PTSUNNY   86  72  62 S9        30.00F HX  92

$$

MDZ017>025-172100-
SOUTHERN MARYLAND

CITY           SKY/WX    TMP DP  RH WIND       PRES   REMARKS
PATUXENT RIVER CLOUDY    82  76  81 SE7       29.96F
ST INIGOES     CLOUDY    80  73  79 SE7G16    29.96F
LEONARDTOWN*   CLOUDY    81  73  78 SE7       29.98F

$$

MDZ003>005-172100-
NORTH CENTRAL MARYLAND

CITY           SKY/WX    TMP DP  RH WIND       PRES   REMARKS
FREDERICK*     MOSUNNY   90  72  55 CALM      29.96F HX  96
HAGERSTOWN APT MOSUNNY   89  72  56 SE12      29.94F HX  96
WESTMINSTER*   MOSUNNY   93  73  52 SE6       29.96F HX 102

$$

MDZ501>502-172100-
WESTERN MARYLAND

CITY           SKY/WX    TMP DP  RH WIND       PRES   REMARKS
OAKLAND*       MOSUNNY   77  64  65 S5        30.02F
CUMBERLAND*    SUNNY     90  70  51 SE5       29.96F HX  95

$$

VAZ025>031-172100-
SHENANDOAH VALLEY

CITY           SKY/WX    TMP DP  RH WIND       PRES   REMARKS
WINCHESTER*    PTSUNNY   86  73  66 SE9       29.93F HX  93
FRONT ROYAL*   MOSUNNY   88  75  66 E6        29.92F HX  97
LURAY*         SUNNY     91  68  46 S3        29.93F HX  95
NEW MARKET*    PTSUNNY  N/A N/A N/A S5        29.91F
STAUNTON*      SUNNY     87  70  55 S8        29.97F HX  92
WAYNESBORO*    SUNNY     88  70  54 W7        29.98F HX  93

$$

WVZ021-048>050-054>055-172100-
EASTERN WEST VIRGINIA PANHANDLE

CITY           SKY/WX    TMP DP  RH WIND       PRES   REMARKS
MARTINSBURG    SUNNY     88  72  58 SE5       29.92F HX  94
PETERSBURG*    SUNNY     92  73  52 CALM      29.92F HX 100

$$

VAZ036>039-050-172100-
CENTRAL FOOTHILLS

CITY           SKY/WX    TMP DP  RH WIND       PRES   REMARKS
CHARLOTTESVILL SUNNY     90  73  57 SW3       29.93F HX  98
CULPEPER*      MOSUNNY   91  76  61 S8        29.93F HX 101
ORANGE*        SUNNY     88  73  62 SE8       29.93F HX  96
GORDONSVILLE*  PTSUNNY   87  76  69 S7        29.93F HX  98
WARRENTON*     PTSUNNY   91  71  52 SE8       29.93F HX  97

$$

VAZ055>057-172100-
NORTH AND CENTRAL PIEDMONT

CITY           SKY/WX    TMP DP  RH WIND       PRES   REMARKS
FREDERICKSBRG* SUNNY     90  73  56 S12       29.93F HX  97
STAFFORD*      PTSUNNY   86  72  62 S7        29.97F HX  92

$$

NCZ024-NYZ072-PAZ021-071-VAZ022-071-172100-
OTHER REGIONAL OBSERVATIONS

CITY           SKY/WX    TMP DP  RH WIND       PRES   REMARKS
NEW YORK CITY  SUNNY     78  61  55 VRB7      30.03F
PHILADELPHIA   MOSUNNY   87  63  44 S8        29.96F
PITTSBURGH     LGT RAIN  84  71  65 SW7       29.91F
ROANOKE        PTSUNNY   94  66  39 VRB5      29.98F HX  97
RICHMOND       MOSUNNY   85  73  67 S14       29.96F HX  91
RALEIGH        HVY RAIN  83  77  82 S14       29.97S FOG     HX  92

$$

ANZ530>537-172100-
MARINE OBSERVATIONS

STATION/POSITION TIME  TEMP    WIND        PRES
                       AIR SEA DIR/SP/G
                 (UTC) (F)     (DEG/KT/KT) (MB)
THOMAS PT LIGHT  2000   79 81  150/ 20/ 24   N/A
BALT KEY BRIDGE  1942   82     150/ 15/ 15 1013.7F
COVE POINT       1942   80     190/ 15/ 17 1015.5F
LEWISETTA        1942   83 84  160/ 10/ 12 1014.7F
SOLOMONS ISLAND  1942   82 82  150/  9/ 11   N/A
PINEY POINT      1942          170/ 13/ 15   N/A

$$





USA.gov is the U.S. government's official web portal to all federal, state and local government web resources and services.